Location: Erba
(45.8000°N, 9.2500°E)
Time: 02:01:40
(UTC+02:00)

ISS - Pass Details

Date: 12 January 2019
Orbit: 408 x 410 km, 51.6° (Epoch: 25 April)

Event Time Altitude Azimuth Distance (km) Brightness Sun altitude
Exits shadow 06:35:43 17° 234° (SW) 1,120 -2.0 -14.6°
Maximum altitude 06:36:06 17° 225° (SW) 1,107 -1.9 -14.5°
Drops below altitude 10° 06:38:22 10° 181° (S) 1,470 -0.8 -14.1°
Sets 06:40:54 0° 161° (SSE) 2,324 0.6 -13.7°
